When you browse on this site, cookies collect data to enhance your experience and personalize the content and advertising you see.
Visit our Privacy Policy to learn more. By continuing to use the site, you agree to this use of cookies and data.
  • In Hungary
  • List of Countries
  • For 7 days
  • Water Temperature
  • Weather Map
  • News
  • Weather Widgets
  • user-avatar
    Login

    Hourly Weather Chajdyce

    Today, 7 December, Saturday

    Time Temperature Precipitation Wind Pressure Humidity
    00:00 0°C° 0 mm 5 mps 742 mmHg 60%
    01:00 0°C° 0 mm 5 mps 741 mmHg 61%
    02:00 -1°C° 0 mm 6 mps 740 mmHg 61%
    03:00 -1°C° 0 mm 6 mps 740 mmHg 61%
    04:00 -1°C° 0 mm 6 mps 739 mmHg 62%
    05:00 -1°C° 0.2 mm 6 mps 739 mmHg 66%
    06:00 -1°C° 0.2 mm 6 mps 739 mmHg 70%
    07:00 -2°C° 0 mm 6 mps 738 mmHg 71%
    08:00 -1°C° 0.4 mm 6 mps 738 mmHg 76%
    09:00 -1°C° 0.4 mm 6 mps 738 mmHg 82%
    10:00 -1°C° 0.4 mm 6 mps 738 mmHg 87%
    11:00 +1°C° 0.2 mm 6 mps 737 mmHg 88%
    12:00 +2°C° 0.2 mm 6 mps 737 mmHg 88%
    13:00 +3°C° 0 mm 6 mps 737 mmHg 89%
    14:00 +3°C° 0.1 mm 6 mps 737 mmHg 89%
    15:00 +3°C° 0.1 mm 6 mps 737 mmHg 90%
    16:00 +3°C° 0.1 mm 6 mps 737 mmHg 90%
    17:00 +4°C° 0 mm 6 mps 737 mmHg 85%
    18:00 +4°C° 0 mm 6 mps 738 mmHg 79%
    19:00 +4°C° 0 mm 7 mps 739 mmHg 74%
    20:00 +3°C° 0.1 mm 6 mps 739 mmHg 78%
    21:00 +3°C° 0.1 mm 6 mps 739 mmHg 82%
    22:00 +3°C° 0.1 mm 6 mps 740 mmHg 85%
    23:00 +2°C° 0.1 mm 6 mps 740 mmHg 85%

    Tomorrow, 8 December, Sunday

    Time Temperature Precipitation Wind Pressure Humidity
    00:00 +2°C° 0.1 mm 6 mps 740 mmHg 85%
    01:00 +2°C° 0.1 mm 6 mps 741 mmHg 85%
    02:00 +2°C° 0 mm 5 mps 741 mmHg 87%
    03:00 +2°C° 0 mm 5 mps 741 mmHg 89%
    04:00 +1°C° 0 mm 4 mps 741 mmHg 91%
    05:00 +3°C° 0 mm 4 mps 741 mmHg 90%
    06:00 +3°C° 0 mm 4 mps 741 mmHg 90%
    07:00 +3°C° 0 mm 4 mps 741 mmHg 90%
    08:00 +3°C° 0.1 mm 5 mps 741 mmHg 90%
    09:00 +3°C° 0.1 mm 5 mps 741 mmHg 90%
    10:00 +5°C° 0.1 mm 5 mps 741 mmHg 89%
    11:00 +4°C° 0 mm 6 mps 740 mmHg 86%
    12:00 +4°C° 0 mm 6 mps 740 mmHg 83%
    13:00 +4°C° 0 mm 7 mps 739 mmHg 79%
    14:00 +4°C° 0 mm 7 mps 739 mmHg 78%
    15:00 +4°C° 0 mm 7 mps 738 mmHg 76%
    16:00 +4°C° 0 mm 7 mps 738 mmHg 74%
    17:00 +4°C° 0 mm 7 mps 737 mmHg 75%
    18:00 +4°C° 0 mm 7 mps 737 mmHg 77%
    19:00 +4°C° 0 mm 7 mps 736 mmHg 78%
    20:00 +4°C° 0 mm 7 mps 736 mmHg 80%
    21:00 +5°C° 0 mm 7 mps 736 mmHg 82%
    22:00 +5°C° 0 mm 7 mps 735 mmHg 84%
    23:00 +5°C° 0 mm 7 mps 735 mmHg 84%

    Day after tomorrow, 9 December, Monday

    Time Temperature Precipitation Wind Pressure Humidity
    00:00 +6°C° 0 mm 7 mps 735 mmHg 84%
    01:00 +6°C° 0 mm 7 mps 735 mmHg 83%
    02:00 +7°C° 0 mm 6 mps 735 mmHg 84%
    03:00 +5°C° 0 mm 6 mps 735 mmHg 85%
    04:00 +5°C° 0 mm 6 mps 735 mmHg 86%
    05:00 +5°C° 0.1 mm 6 mps 735 mmHg 86%
    06:00 +6°C° 0.1 mm 5 mps 735 mmHg 86%
    07:00 +6°C° 0.1 mm 5 mps 735 mmHg 86%
    08:00 +6°C° 0 mm 5 mps 735 mmHg 84%
    09:00 +6°C° 0 mm 5 mps 735 mmHg 82%
    10:00 +6°C° 0 mm 5 mps 735 mmHg 80%
    11:00 +6°C° 0 mm 5 mps 735 mmHg 77%
    12:00 +6°C° 0 mm 5 mps 736 mmHg 74%
    13:00 +5°C° 0 mm 6 mps 736 mmHg 71%
    14:00 +6°C° 0 mm 5 mps 736 mmHg 73%
    15:00 +5°C° 0 mm 4 mps 736 mmHg 75%
    16:00 +4°C° 0 mm 4 mps 736 mmHg 77%
    17:00 +4°C° 0 mm 4 mps 736 mmHg 77%
    18:00 +4°C° 0 mm 4 mps 736 mmHg 78%
    19:00 +4°C° 0 mm 4 mps 737 mmHg 79%
    20:00 +4°C° 0 mm 4 mps 737 mmHg 79%
    21:00 +4°C° 0 mm 4 mps 737 mmHg 79%
    22:00 +4°C° 0 mm 4 mps 737 mmHg 79%
    23:00 +3°C° 0.1 mm 5 mps 737 mmHg 81%

    10 December, Tuesday

    Time Temperature Precipitation Wind Pressure Humidity
    00:00 +3°C° 0.1 mm 5 mps 737 mmHg 82%
    01:00 +3°C° 0.1 mm 5 mps 738 mmHg 84%
    02:00 +3°C° 0.1 mm 5 mps 738 mmHg 83%
    03:00 +3°C° 0.1 mm 5 mps 739 mmHg 82%
    04:00 +3°C° 0.1 mm 5 mps 739 mmHg 81%
    05:00 +3°C° 0 mm 5 mps 740 mmHg 81%
    06:00 +2°C° 0 mm 5 mps 740 mmHg 81%
    07:00 +2°C° 0 mm 5 mps 741 mmHg 81%
    08:00 +2°C° 0 mm 5 mps 742 mmHg 82%
    09:00 +2°C° 0 mm 5 mps 743 mmHg 84%
    10:00 +2°C° 0 mm 5 mps 743 mmHg 85%
    11:00 +2°C° 0.3 mm 5 mps 744 mmHg 86%
    12:00 +3°C° 0.3 mm 4 mps 745 mmHg 87%
    13:00 +3°C° 0.3 mm 4 mps 746 mmHg 88%
    14:00 +2°C° 0.1 mm 5 mps 747 mmHg 87%
    15:00 +1°C° 0.1 mm 5 mps 747 mmHg 85%
    16:00 +1°C° 0.1 mm 5 mps 748 mmHg 83%
    17:00 0°C° 0 mm 4 mps 750 mmHg 81%
    18:00 0°C° 0 mm 3 mps 751 mmHg 79%
    19:00 +1°C° 0 mm 2 mps 752 mmHg 77%
    20:00 -1°C° 0 mm 2 mps 752 mmHg 79%
    21:00 -1°C° 0 mm 2 mps 752 mmHg 82%
    22:00 -1°C° 0 mm 2 mps 753 mmHg 84%
    23:00 -1°C° 0 mm 2 mps 753 mmHg 83%

    11 December, Wednesday

    Time Temperature Precipitation Wind Pressure Humidity
    00:00 -2°C° 0 mm 2 mps 753 mmHg 83%
    01:00 -2°C° 0 mm 2 mps 753 mmHg 82%
    02:00 -2°C° 0 mm 2 mps 753 mmHg 80%
    03:00 -2°C° 0 mm 2 mps 753 mmHg 79%
    04:00 -2°C° 0 mm 2 mps 753 mmHg 77%
    05:00 -2°C° 0 mm 3 mps 753 mmHg 77%
    06:00 -2°C° 0 mm 3 mps 752 mmHg 77%
    07:00 -3°C° 0 mm 4 mps 752 mmHg 76%
    08:00 -2°C° 0 mm 4 mps 752 mmHg 75%
    09:00 -2°C° 0 mm 5 mps 752 mmHg 73%
    10:00 -1°C° 0 mm 5 mps 751 mmHg 71%
    11:00 -2°C° 0 mm 6 mps 751 mmHg 71%
    12:00 -1°C° 0 mm 6 mps 750 mmHg 70%
    13:00 -1°C° 0 mm 6 mps 750 mmHg 69%
    14:00 0°C° 0 mm 5 mps 750 mmHg 74%
    15:00 0°C° 0 mm 5 mps 749 mmHg 78%
    16:00 -1°C° 0 mm 5 mps 749 mmHg 82%
    17:00 -1°C° 0 mm 5 mps 749 mmHg 84%
    18:00 -1°C° 0 mm 5 mps 749 mmHg 86%
    19:00 -2°C° 0 mm 5 mps 749 mmHg 88%
    20:00 -2°C° 0 mm 4 mps 748 mmHg 88%
    21:00 -2°C° 0 mm 4 mps 748 mmHg 88%
    22:00 -2°C° 0 mm 4 mps 748 mmHg 88%
    23:00 -3°C° 0 mm 4 mps 748 mmHg 89%

    12 December, Thursday

    Time Temperature Precipitation Wind Pressure Humidity
    00:00 -3°C° 0 mm 4 mps 747 mmHg 90%
    01:00 -2°C° 0 mm 3 mps 747 mmHg 90%
    02:00 -2°C° 0 mm 3 mps 747 mmHg 90%
    03:00 -2°C° 0 mm 3 mps 746 mmHg 89%
    04:00 -2°C° 0 mm 3 mps 746 mmHg 88%
    05:00 -4°C° 0 mm 3 mps 746 mmHg 88%
    06:00 -4°C° 0 mm 3 mps 746 mmHg 87%
    07:00 -4°C° 0 mm 3 mps 746 mmHg 87%
    08:00 -2°C° 0 mm 3 mps 746 mmHg 83%
    09:00 -2°C° 0 mm 4 mps 746 mmHg 79%
    10:00 -2°C° 0 mm 4 mps 746 mmHg 75%
    11:00 -1°C° 0 mm 4 mps 745 mmHg 73%
    12:00 0°C° 0 mm 4 mps 745 mmHg 71%
    13:00 0°C° 0 mm 4 mps 744 mmHg 69%
    14:00 -1°C° 0 mm 4 mps 744 mmHg 74%
    15:00 -1°C° 0 mm 4 mps 744 mmHg 79%
    16:00 -1°C° 0 mm 3 mps 744 mmHg 83%
    17:00 -1°C° 0 mm 3 mps 744 mmHg 84%
    18:00 -1°C° 0 mm 3 mps 744 mmHg 84%
    19:00 -1°C° 0 mm 3 mps 743 mmHg 84%
    20:00 -1°C° 0 mm 3 mps 744 mmHg 85%
    21:00 -1°C° 0 mm 3 mps 744 mmHg 86%
    22:00 -1°C° 0 mm 3 mps 744 mmHg 87%
    23:00 -1°C° 0 mm 3 mps 743 mmHg 90%
    Show more